Change the Weather History Date:

Saturday, January 5, 2013

  Actual Average (KSDA) Record (KSDA)
Temperature  
Mean Temperature 29 °F -  
Max Temperature 39 °F 31 °F 66 °F (2012)
Min Temperature 19 °F 11 °F -9 °F (1959)
Degree Days  
Heating Degree Days 36    
Moisture  
Dew Point 24 °F    
Average Humidity 80    
Maximum Humidity 93    
Minimum Humidity 61    
Precipitation  
Precipitation 0.00 in - - ()
Sea Level Pressure  
Sea Level Pressure 30.08 in    
Wind  
Wind Speed 10 mph (WSW)    
Max Wind Speed 28 mph    
Max Gust Speed 31 mph    
Visibility 10 miles    
Events      
Averages and records for this station are not official NWS values.
T = Trace of Precipitation, MM = Missing Value Source: NWS Daily Summary

Daily Weather History Graph

Daily Weather History Graph

Search for Another Location

Airport or City:

Trip Planner

Search our weather history database for the weather conditions in past years. The results will help you decide how hot, cold, wet, or windy it might be!

Date:

Astronomy

Jan. 05, 2013 Rise Set
Actual Time 7:47 AM CST 5:11 PM CST
Civil Twilight 7:16 AM CST 5:41 PM CST
Nautical Twilight 6:42 AM CST 6:15 PM CST
Astronomical Twilight 6:09 AM CST 6:48 PM CST
Moon 12:54 AM CST (1/5) 12:02 PM CST (1/5)
Length of Visible Light 10h 24m
Length of Day
9h 23m
Last Quarter, 44% of the Moon is Illuminated
Jan 5
Last Quarter
Jan 11
New
Jan 18
First Quarter
Jan 26
Full
Feb 3
Last Quarter

Hourly Weather History & Observations

Time (CST) Temp. Windchill Dew Point Humidity Pressure Visibility Wind Dir Wind Speed Gust Speed Precip Events Conditions
12:15 AM 22.1 °F - 18.9 °F 87% 30.14 in 10.0 mi Calm Calm - N/A   Clear
12:35 AM 22.1 °F - 19.0 °F 88% 30.14 in 10.0 mi Calm Calm - N/A   Clear
12:55 AM 21.0 °F - 18.3 °F 89% 30.13 in 10.0 mi Calm Calm - N/A   Clear
1:15 AM 19.6 °F - 17.2 °F 91% 30.13 in 10.0 mi Calm Calm - N/A   Clear
1:35 AM 22.3 °F 12.2 °F 20.7 °F 93% 30.12 in 10.0 mi SW 9.2 mph - N/A   Clear
1:55 AM 23.9 °F 12.9 °F 20.3 °F 86% 30.12 in 10.0 mi SW 11.5 mph - N/A   Clear
2:15 AM 22.5 °F 12.4 °F 19.0 °F 87% 30.12 in 10.0 mi SSW 9.2 mph - N/A   Clear
2:35 AM 21.7 °F 13.2 °F 18.3 °F 87% 30.13 in 10.0 mi SSW 6.9 mph - N/A   Clear
2:55 AM 21.7 °F 11.5 °F 18.9 °F 89% 30.12 in 10.0 mi SSW 9.2 mph - N/A   Clear
3:15 AM 22.5 °F 11.7 °F 19.2 °F 87% 30.12 in 10.0 mi SSW 10.4 mph - N/A   Scattered Clouds
3:35 AM 23.7 °F 13.3 °F 20.1 °F 86% 30.11 in 10.0 mi SSW 10.4 mph - N/A   Scattered Clouds
3:55 AM 25.7 °F 14.6 °F 21.7 °F 85% 30.10 in 10.0 mi SSW 12.7 mph - N/A   Overcast
4:15 AM 26.6 °F 15.7 °F 22.8 °F 86% 30.09 in 10.0 mi SSW 12.7 mph - N/A   Overcast
4:35 AM 27.1 °F 16.9 °F 23.0 °F 84% 30.08 in 10.0 mi SSW 11.5 mph - N/A   Overcast
4:55 AM 26.6 °F 17.5 °F 23.0 °F 86% 30.07 in 10.0 mi SSW 9.2 mph - N/A   Overcast
5:15 AM 26.8 °F 17.7 °F 23.5 °F 88% 30.07 in 10.0 mi South 9.2 mph - N/A   Overcast
5:35 AM 27.5 °F 18.0 °F 24.4 °F 88% 30.06 in 10.0 mi South 10.4 mph - N/A   Overcast
5:55 AM 27.9 °F 18.4 °F 24.8 °F 88% 30.05 in 10.0 mi SSW 10.4 mph - N/A   Mostly Cloudy
6:15 AM 28.6 °F 18.7 °F 25.0 °F 86% 30.06 in 10.0 mi SSW 11.5 mph - N/A   Scattered Clouds
6:35 AM 27.9 °F 17.8 °F 24.4 °F 87% 30.05 in 10.0 mi SSW 11.5 mph - N/A   Clear
6:55 AM 28.4 °F 18.0 °F 24.8 °F 86% 30.06 in 10.0 mi SSW 12.7 mph - N/A   Clear
7:15 AM 28.4 °F 18.5 °F 25.3 °F 88% 30.07 in 10.0 mi SSW 11.5 mph - N/A   Clear
7:35 AM 29.1 °F 20.6 °F 25.7 °F 87% 30.07 in 10.0 mi SW 9.2 mph - N/A   Mostly Cloudy
7:55 AM 29.3 °F 22.3 °F 26.4 °F 89% 30.07 in 10.0 mi SSW 6.9 mph - N/A   Overcast
8:15 AM 31.1 °F 23.1 °F 27.9 °F 88% 30.06 in 10.0 mi SSW 9.2 mph - N/A   Overcast
8:35 AM 32.2 °F 22.7 °F 29.1 °F 88% 30.06 in 10.0 mi SSW 12.7 mph - N/A   Overcast
8:55 AM 33.8 °F 25.3 °F 30.2 °F 87% 30.06 in 10.0 mi SSW 11.5 mph - N/A   Mostly Cloudy
9:15 AM 34.7 °F 26.4 °F 30.7 °F 85% 30.07 in 10.0 mi SSW 11.5 mph - N/A   Mostly Cloudy
9:55 AM 36.5 °F 26.7 °F 31.5 °F 82% 30.06 in 10.0 mi SW 17.3 mph 20.7 mph N/A   Scattered Clouds
10:15 AM 37.0 °F 27.4 °F 31.3 °F 80% 30.06 in 10.0 mi SW 17.3 mph 21.9 mph N/A   Mostly Cloudy
10:55 AM 36.3 °F 26.8 °F 30.7 °F 80% 30.06 in 10.0 mi SW 16.1 mph 23.0 mph N/A   Scattered Clouds
11:15 AM 37.9 °F 27.3 °F 31.3 °F 77% 30.05 in 10.0 mi WSW 21.9 mph 28.8 mph N/A   Scattered Clouds
11:35 AM 38.5 °F 27.8 °F 30.9 °F 74% 30.03 in 10.0 mi WSW 23.0 mph 31.1 mph N/A   Scattered Clouds
11:55 AM 39.2 °F 29.0 °F 31.1 °F 73% 30.02 in 10.0 mi WSW 21.9 mph 27.6 mph N/A   Mostly Cloudy
12:15 PM 39.4 °F 28.1 °F 31.1 °F 72% 30.01 in 10.0 mi WSW 27.6 mph 31.1 mph N/A   Scattered Clouds
12:35 PM 39.6 °F 29.0 °F 30.9 °F 71% 30.01 in 10.0 mi WSW 24.2 mph 29.9 mph N/A   Clear
12:55 PM 39.6 °F 29.7 °F 31.1 °F 72% 29.99 in 10.0 mi WSW 20.7 mph 26.5 mph N/A   Scattered Clouds
1:15 PM 39.4 °F 28.3 °F 30.7 °F 71% 29.99 in 10.0 mi WSW 26.5 mph 29.9 mph N/A   Scattered Clouds
1:35 PM 39.6 °F 29.7 °F 30.9 °F 71% 30.00 in 10.0 mi West 20.7 mph 27.6 mph N/A   Clear
1:55 PM 37.4 °F 26.4 °F 28.4 °F 70% 30.00 in 10.0 mi West 23.0 mph - N/A   Scattered Clouds
2:15 PM 36.9 °F 26.2 °F 28.0 °F 70% 30.00 in 10.0 mi West 20.7 mph - N/A   Scattered Clouds
2:35 PM 36.5 °F 26.7 °F 27.0 °F 68% 30.00 in 10.0 mi WSW 17.3 mph - N/A   Scattered Clouds
2:55 PM 36.5 °F 26.7 °F 26.1 °F 66% 30.01 in 10.0 mi West 17.3 mph - N/A   Clear
3:15 PM 35.6 °F 25.2 °F 24.3 °F 63% 30.03 in 10.0 mi West 18.4 mph - N/A   Clear
3:35 PM 34.5 °F 25.7 °F 22.1 °F 61% 30.03 in 10.0 mi WNW 12.7 mph - N/A   Clear
3:55 PM 34.2 °F 26.2 °F 22.3 °F 62% 30.03 in 10.0 mi WNW 10.4 mph - N/A   Clear
4:15 PM 33.8 °F 24.8 °F 22.6 °F 64% 30.04 in 10.0 mi West 12.7 mph - N/A   Clear
4:55 PM 32.0 °F 24.2 °F 23.2 °F 70% 30.06 in 10.0 mi West 9.2 mph - N/A   Clear
5:15 PM 31.3 °F - 22.6 °F 70% 30.06 in 10.0 mi Calm Calm - N/A   Clear
5:35 PM 29.7 °F - 23.0 °F 76% 30.06 in 10.0 mi Calm Calm - N/A   Clear
5:55 PM 29.3 °F 20.8 °F 23.0 °F 77% 30.07 in 10.0 mi West 9.2 mph - N/A   Clear
6:15 PM 29.3 °F 20.8 °F 23.0 °F 77% 30.07 in 10.0 mi West 9.2 mph - N/A   Clear
6:35 PM 28.6 °F 19.9 °F 22.6 °F 78% 30.08 in 10.0 mi WSW 9.2 mph - N/A   Clear
6:55 PM 27.3 °F 17.7 °F 22.5 °F 82% 30.09 in 10.0 mi WSW 10.4 mph - N/A   Clear
7:15 PM 28.2 °F 19.5 °F 22.5 °F 79% 30.09 in 10.0 mi WSW 9.2 mph - N/A   Clear
7:55 PM 27.3 °F - 22.6 °F 83% 30.11 in 10.0 mi Calm Calm - N/A   Clear
8:15 PM 26.4 °F - 22.1 °F 84% 30.12 in 10.0 mi Calm Calm - N/A   Clear
8:35 PM 28.4 °F - 23.0 °F 80% 30.12 in 10.0 mi Calm Calm - N/A   Clear
8:55 PM 28.4 °F 23.3 °F 23.0 °F 80% 30.13 in 10.0 mi NW 4.6 mph - N/A   Clear
9:15 PM 28.4 °F 17.5 °F 22.1 °F 77% 30.14 in 10.0 mi North 13.8 mph 18.4 mph N/A   Clear
9:35 PM 27.1 °F 15.9 °F 21.0 °F 78% 30.15 in 10.0 mi NNW 13.8 mph - N/A   Clear
9:55 PM 26.4 °F 15.0 °F 20.7 °F 79% 30.15 in 10.0 mi NNW 13.8 mph 18.4 mph N/A   Clear
10:15 PM 25.3 °F 16.0 °F 20.3 °F 81% 30.16 in 10.0 mi North 9.2 mph - N/A   Scattered Clouds
10:35 PM 25.2 °F 12.4 °F 19.2 °F 78% 30.17 in 10.0 mi NNW 16.1 mph 21.9 mph N/A   Scattered Clouds
10:55 PM 25.3 °F 11.8 °F 19.2 °F 78% 30.17 in 10.0 mi NW 18.4 mph 23.0 mph N/A   Mostly Cloudy
11:15 PM 25.5 °F 12.0 °F 19.2 °F 77% 30.18 in 10.0 mi NNW 18.4 mph 25.3 mph N/A   Overcast
11:35 PM 25.0 °F 11.7 °F 18.5 °F 76% 30.19 in 10.0 mi NNW 17.3 mph 26.5 mph N/A   Overcast
11:55 PM 23.5 °F 8.3 °F 16.7 °F 75% 30.20 in 10.0 mi NNW 21.9 mph 31.1 mph N/A   Overcast